Regional Weather Roundup
Issued by NWS Sioux Falls, SD

Home | Current Version | Previous Version | Graphics & Text | Print | Product List | Glossary Off
Versions: 1 2 3 4 5 6 7 8 9 10 11 12 13 14 15 16 17 18 19 20 21 22 23 24 25 26 27 28 29 30 31 32 33 34 35 36 37 38 39 40 41 42 43 44 45 46 47 48 49 50

000
ASUS43 KFSD 250802
RWRFSD

WEATHER ROUNDUP FOR SE SOUTH DAKOTA/SW MINNESOTA/NW IOWA
NATIONAL WEATHER SERVICE SIOUX FALLS SD
300 AM CDT MON MAY 25 2015

NOTE: "FAIR" INDICATES FEW OR NO CLOUDS BELOW 12,000 FEET WITH NO
SIGNIFICANT WEATHER AND OR OBSTRUCTIONS TO VISIBILITY.


SDZ038>040-050-052>070-250900-
SOUTHEAST SOUTH DAKOTA

CITY           SKY/WX    TMP DP  RH WIND       PRES   REMARKS
BROOKINGS      CLOUDY    57  55  94 N6        29.74F
CHAMBERLAIN    NOT AVBL
HURON          LGT RAIN  57  57 100 N5        29.75F FOG
MADISON        CLOUDY    55  55 100 NW5       29.75S
MITCHELL       CLOUDY    59  58  96 N6        29.76S FOG
SIOUX FALLS    CLOUDY    59  57  93 NW5       29.72F
WINNER         FOG       59  57  93 NE5       29.77F VSB 1/4
YANKTON        CLOUDY    61  57  88 W3        29.74S
$$

MNZ071-072-080-081-089-090-097-098-250900-
SOUTHWEST MINNESOTA

CITY           SKY/WX    TMP DP  RH WIND       PRES   REMARKS
FAIRMONT       CLOUDY    61  55  82 SW8       29.70F
JACKSON        FOG       59  59 100 SW5       29.71F VSB 1
LUVERNE        CLOUDY    59  57  94 NW3       29.73F
MARSHALL       CLOUDY    57  54  88 N6        29.71F
MONTEVIDEO     DRIZZLE   57  57 100 NE6       29.72F
REDWOOD FALLS  CLOUDY    58  57  97 N3        29.69F FOG
TRACY          FOG       58  58  98 NW3       29.72S VSB 1
WINDOM         FOG       59  57  94 CALM      29.71F VSB 1/4
WORTHINGTON    CLOUDY    57  55  94 W5        29.72S VSB 1/2
$$

IAZ001>003-012>014-020>022-031-032-NEZ013-014-SDZ071-250900-
NORTHWEST IOWA

CITY           SKY/WX    TMP DP  RH WIND       PRES   REMARKS
DENISON        CLOUDY    63  63 100 SW6       29.73F
ESTHERVILLE    CLOUDY    60  59  96 SW12      29.70F
SIOUX CITY     CLOUDY    61  58  90 W8        29.75S
SPENCER        CLOUDY    61  60  97 SW10      29.72F
$$

ABBREVIATIONS USED IN REMARKS
   TC - TEMPERATURE IN CELSIUS
  WCI - WIND CHILL INDEX
   HX - HEAT INDEX
  VSB - VISIBILITY



USA.gov is the U.S. government's official web portal to all federal, state and local government web resources and services.